348  
FPUS83 KFGF 130731  
OPUFGF  
PRAIRIE TO PINES WEATHER ROUNDUP  
NATIONAL WEATHER SERVICE EASTERN NORTH DAKOTA/GRAND FORKS ND  
200 AM CDT TUE APR 13 2021  
 
**SATELLITE DATA USED TO AUGMENT SKY COVER AT AUTOMATED STATIONS**  
***** WEATHER ACROSS EASTERN NORTH DAKOTA *****  
 
CITY SKY/WX TMP DP RH WIND PRES REMARKS  
GRAND FORKS LGT SNOW 26 21 81 NW17G29 29.92R WCI 13  
GRND FORKS AFB FLURRIES 25 25 99 NW17G24 29.93R WCI 12  
GRND FORKS NWS N/A 25 23 93 N15 29.87S WCI 12  
BUXTON NOT AVBL  
DEVILS LAKE LGT SNOW 21 19 93 NW17 29.99S FOG WCI 7  
FARGO CLOUDY 26 22 84 W20 29.95R WCI 12  
WAHPETON ARPT N/A N/A N/A N/A MISG N/A  

 
 
***** WEATHER ACROSS CENTRAL AND WESTERN NORTH DAKOTA *****  
 
CITY SKY/WX TMP DP RH WIND PRES REMARKS  
JAMESTOWN LGT SNOW 23 19 85 NW15 29.99R FOG WCI 10  
BISMARCK CLOUDY 24 15 68 NW13 30.12R WCI 12  
MINOT CLOUDY 23 17 78 NW16 30.10R WCI 10  
MINOT AFB FLURRIES 22 18 85 N16G22 30.09S WCI 8  
GARRISON N/A 22 18 85 MISG 30.10S  
WILLISTON NOT AVBL  
DICKINSON CLOUDY 24 18 77 NW22G29 30.12S WCI 9  
HETTINGER CLOUDY N/A N/A N/A NW20G29 30.16R  

 
 
***** OTHER OBSERVATIONS NORTHEAST NORTH DAKOTA *****  
 
CITY SKY/WX TMP DP RH WIND PRES REMARKS  
WALHALLA MIX PCPN 23 23 100 NW20G30 29.96S WCI 8  
LANGDON CLOUDY 23 23 100 NW22 29.95S WCI 8  
CAVALIER LGT SNOW 23 23 100 NW18G25 29.94S WCI 9  
GRAFTON NOT AVBL  
CANDO LGT SNOW 21 21 100 NW16G24 30.03S WCI 7  
FORT TOTTEN N/A 22 18 85 N12 29.95S WCI 10  
ROLLA FLURRIES 19 19 100 N20G29 30.01R WCI 4  
RUGBY LGT SNOW 21 19 93 NW15 30.04S WCI 8  
***** THE ABOVE OBSERVATIONS ARE NON NWS ARE NOT QUALITY  
CONTROLLED AND MAY MIS-REPORT RAIN FOR SNOW...  

 
 
***** OTHER OBSERVATIONS SOUTHEAST NORTH DAKOTA *****  
 
CITY SKY/WX TMP DP RH WIND PRES REMARKS  
COOPERSTOWN FLURRIES 23 23 100 NW21G28 29.96S WCI 8  
VALLEY CITY FLURRIES 23 23 100 NW21G26 29.98S WCI 8  
OAKES CLOUDY 23 21 93 NW17G25 30.00S WCI 9  
GWINNER CLOUDY 25 25 100 NW20 29.98S WCI 11  
BUFFALO NOT AVBL  
WYNDMERE NOT AVBL  
***** THE ABOVE OBSERVATIONS ARE NON NWS ARE NOT QUALITY  
CONTROLLED AND MAY MIS-REPORT RAIN FOR SNOW...  

 
 
***** WEATHER ACROSS NORTHERN MINNESOTA *****  
 
CITY SKY/WX TMP DP RH WIND PRES REMARKS  
FLAG ISLAND NOT AVBL  
WARROAD LGT SNOW 34 28 80 N9 29.80S  
ROSEAU LGT SNOW 34 N/A N/A NW9 29.80S  
HALLOCK LGT SNOW 27 27 100 NW20G26 29.88F WCI 13  
THF RVR FALLS LGT SNOW 27 25 93 NW15 29.85S FOG WCI 15  
HALSTAD NOT AVBL  
FOSSTON LGT SNOW 25 21 86 W14 29.85S WCI 13  
BAUDETTE LGT SNOW 33 33 100 N8 29.76S FOG  
WASKISH LGT SNOW 34 32 93 NW8 29.75S  
CROOKSTON LGT SNOW 25 25 100 NW22 29.89F WCI 10  

 
***** WEATHER ACROSS CENTRAL AND WEST MINNESOTA *****  
 
CITY SKY/WX TMP DP RH WIND PRES REMARKS  
BEMIDJI LGT SNOW 27 25 94 W16 29.79S WCI 14  
PARK RAPIDS FLURRIES 27 24 89 W13 29.83S WCI 16  
WADENA N/A 28 25 86 W13G21 29.87R WCI 18  
DETROIT LAKES LGT SNOW 25 23 93 W15G22 29.89R FOG WCI 12  
MOORHEAD FAIR 28 21 74 NW17 29.95S WCI 16  
FERGUS FALLS CLOUDY 27 23 86 NW20 29.90R WCI 13  
ELBOW LAKE FAIR 27 25 92 NW13 29.95R WCI 16  
MORRIS MN LGT SNOW 30 27 86 NW12 29.92R WCI 21  
STAPLES CLOUDY 30 27 86 W16 29.87R WCI 19  
WHEATON NOT AVBL  

 
***** WEATHER ELSEWHERE ACROSS MINNESOTA *****  
 
CITY SKY/WX TMP DP RH WIND PRES REMARKS  
DULUTH FLURRIES 34 31 88 W13 29.76R WCI 25  
INTRNTL FALLS CLOUDY 35 33 92 NE7 29.72S  
ELY CLOUDY 37 37 100 S5 29.71S FOG  
CLOQUET LGT SNOW 30 30 100 SW9 29.77S WCI 22  
BRAINERD FLURRIES 31 27 85 W12 29.85S WCI 22  
HIBBING LGT SNOW 32 30 92 W6 29.74S FOG  
ALEXANDRIA MOCLDY 28 22 78 W14G30 29.91S WCI 17  
SAINT CLOUD CLOUDY 32 25 75 W16 29.90S WCI 21  
MINNEAPOLIS FLURRIES 34 32 92 W8 29.94R  

 
 
***** WEATHER ACROSS SOUTH DAKOTA *****  
 
CITY SKY/WX TMP DP RH WIND PRES REMARKS  
SIOUX FALLS CLOUDY 38 26 62 W10G18 30.06F  
BROOKINGS CLOUDY 34 25 69 W20G29 30.01S WCI 23  
WATERTOWN CLOUDY 31 23 72 W23G33 29.97F WCI 18  
HURON CLOUDY 35 24 64 NW16G26 30.07S  
SISSETON N/A 32 23 69 NW18 29.96S WCI 20  
ABERDEEN LGT SNOW 30 24 78 NW17G23 30.05R WCI 18  
MITCHELL CLOUDY 40 23 50 W24G35 30.10S  
PIERRE MOCLDY 33 22 63 NW25G38 30.13R WCI 20  
MOBRIDGE CLOUDY 30 22 72 NW22G33 30.06S WCI 17  
RAPID CITY CLOUDY 32 20 61 NW24G35 30.19R WCI 19  

 
 
***** SOME WEATHER IN NEARBY STATES *****  
 
CITY SKY/WX TMP DP RH WIND PRES REMARKS  
GLASGOW MT CLOUDY 30 19 63 NW16 30.36S WCI 19  
GREAT FALLS MT CLOUDY 25 16 68 NE7 30.43S WCI 17  
CHEYENNE WY CLOUDY 28 14 55 N13 30.21R WCI 17  
SCOTTSBLUFF NE FAIR 23 11 60 N8 30.28R WCI 14  
OMAHA NE FAIR 41 26 55 W8 30.16R  
DES MOINES IA MOCLDY 41 28 60 W14 30.12R  
DAVENPORT IA FAIR 43 32 65 W13 30.06R  
CHICAGO IL FAIR 47 35 63 SW7 29.98R  
EAU CLAIRE WI CLOUDY 39 32 76 W16G28 29.89R  
LA CROSSE WI CLOUDY 44 32 62 W18G28 29.95R  

 
 
***** SOME NATIONAL WEATHER *****  
 
CITY SKY/WX TMP DP RH WIND PRES REMARKS  
LA GUARDIA NY CLOUDY 46 41 82 NE7 29.96S  
RALEIGH NC FAIR 57 42 57 VRB6 29.93S  
ATLANTA GA FAIR 64 45 49 W5 29.98R  
NEW ORLEANS LA FAIR 67 61 81 E7 29.94F  
OKLAHOMA CITY MOCLDY 50 31 48 N14 30.06R  
ALBUQUERQUE NM CLOUDY 53 23 31 E38G51 29.95R  
SALT LAKE CITY FAIR 41 17 38 S5 29.95F  
LOS ANGELES CA MOCLDY 57 51 80 W8 29.90R  
BOISE ID FAIR 44 20 38 SE10 30.01R  
SEATTLE WA FAIR 49 25 39 NE9 30.28R  

 
 
*** WEATHER ACROSS MANITOBA...SASKATCHEWAN AND ONTARIO ***  
***ONTARIO***  
 
CITY SKY/WX TMP DP RH WIND PRES REMARKS  
GERALDTON CLOUDY 39 37 93 E7 29.81F  
THUNDER BAY LGT RAIN 41 41 100 E6 N/A  
SIOUX LOOKOUT LGT RAIN 36 36 100 NE8G17 29.80S FOG  
TORONTO CLOUDY 46 45 93 VRB2 29.95S  
BIG TROUT LK LGT SNOW 25 25 100 NE13G25 30.19S WCI 13  
PICKLE LAKE CLOUDY 32 32 100 NE14G22 29.94S FOG WCI 22  
DRYDEN MIX PCPN 34 32 93 NE12G22 29.77F FOG  
KENORA LGT SNOW 32 32 100 NE8 29.80S FOG WCI 25  

 
*** MANITOBA***  
 
CITY SKY/WX TMP DP RH WIND PRES REMARKS  
BRANDON LGT SNOW 23 18 80 N13G18 30.08R WCI 11  
DAUPHIN LGT SNOW 23 21 93 N20G26 30.18S WCI 8  
ISLAND LAKE NOT AVBL  
PILOT MOUND N/A 21 18 86 N12G18 N/A WCI 9  
THE PAS MOCLDY 27 18 69 N13G25 30.45R WCI 16  
THOMPSON CLOUDY 18 7 62 NE15G24 30.56S WCI 3  
WINNIPEG LGT SNOW 25 23 93 N22G30 29.95R VSB 1 WCI 10  
LYNN LAKE CLEAR 18 9 68 NE9 30.65R WCI 6  
CHURCHILL PTCLDY 5 3 92 N14 30.75F WCI -12  
GILLAM FLURRIES 12 5 73 N20G25 30.58S WCI -6  

 
***SASKATCHEWAN***  
 
CITY SKY/WX TMP DP RH WIND PRES REMARKS  
ESTEVAN LGT SNOW 23 21 93 N25G32 30.16S WCI 7  
KINDERSLEY MOCLDY 27 14 59 N10 30.51R WCI 17  
LLOYDMINSTER CLEAR 28 14 54 NE3 30.56S  
PRINCE ALBERT MOCLDY 30 14 51 N12 30.55R WCI 21  
REGINA SNOW 25 23 93 N26G35 30.29F VSB 1/2 WCI 9  
YORKTON LGT SNOW 25 21 86 N25G33 30.21R WCI 9  
N. BATTLEFORD PTCLDY 30 16 55 N10 30.57R WC  
 
CLICK HERE TO GO TO PREVIOUS BULLETINS.

The Nexlab ND Page
The Nexlab MN Page Main Text Page